Flag for U.S.A. Weather past 2 weeks in Rapid City, South Dakota, U.S.A.

Now
68 °F

Sunny.


Feels Like: 68 °F
Forecast: 61 / 78 °F
Wind: 25 mph from Northwest

Location: Ellsworth Air Force Base

Current Time: Aug 31, 2015 at 8:02:23 AM

Latest Report: Aug 31, 2015 at 6:58 AM


Visibility: 10 mi

Pressure: 29.83 "Hg (26.62 "Hg at 977m altitude)

Humidity: 59%

Dew point: 53 °F

Location of Rapid CityLocation

Historic Weather in Rapid City — Graph

°F

Rapid City temperature yesterday

Maximum temperature yesterday: 99 °F (at 2:58 PM)
Minimum temperature yesterday: 66 °F (at 6:58 AM)
Average temperature yesterday: 78 °F

Past Weeks' High & Low Weather Summary

 TemperatureHumidityPressure
High99 °F (Aug 30, 2:58 PM)100% (Aug 18, 12:03 AM)30.25 "Hg (Aug 18, 12:03 AM)
Low41 °F (Aug 23, 4:58 AM)20% (Aug 29, 2:58 PM)29.42 "Hg (Aug 22, 2:58 AM)
Average67 °F59%29.95 "Hg
* Reported Aug 16 6:58 AM — Aug 31 6:58 AM, Rapid City, Weather by CustomWeather, © 2015

Note: Actual official high and low records may vary slightly from our data, if they occured in-between our weather recording intervals... More about our weather records

Advertising

Rapid City weather history for previous 24 hours

 ConditionsComfort  
Time TempWeatherWind HumidityBarometerVisibility
6:58 AM
Mon, Aug 31
68 °FSunny.25 mph59%29.83 "Hg10 mi
5:58 AM74 °FPassing clouds.18 mph45%29.77 "Hg10 mi
4:58 AM73 °FPassing clouds.13 mph46%29.69 "Hg10 mi
3:58 AM77 °FPartly cloudy.10 mph42%29.66 "Hg10 mi
2:58 AM74 °FOvercast.13 mph46%29.65 "Hg10 mi
1:58 AM74 °FPassing clouds.7 mph48%29.65 "Hg10 mi
12:58 AM71 °FClear.7 mph57%29.67 "Hg10 mi
11:58 PM
Sun, Aug 30
70 °FPassing clouds.10 mph66%29.68 "Hg10 mi
10:58 PM68 °FPassing clouds.8 mph73%29.66 "Hg10 mi
9:58 PM68 °FPassing clouds.8 mph75%29.69 "Hg10 mi
8:58 PM73 °FOvercast.8 mph67%29.70 "Hg10 mi
8:03 PM72 °FThundershowers. Overcast.13 mph69%29.80 "Hg10 mi
7:58 PM70 °FThunderstorms. Mostly cloudy.14 mph78%29.75 "Hg10 mi
6:58 PM87 °FPartly sunny.3 mph36%29.65 "Hg10 mi
5:58 PM90 °FMostly cloudy.15 mph32%29.65 "Hg10 mi
4:58 PM96 °FPartly sunny.14 mph22%29.64 "Hg10 mi
2:58 PM99 °FSunny.15 mph21%29.64 "Hg10 mi
1:58 PM96 °FSunny.8 mph25%29.67 "Hg10 mi
12:58 PM92 °FSunny.3 mph31%29.70 "Hg10 mi
11:58 AM89 °FSunny.7 mph34%29.72 "Hg10 mi
10:58 AM84 °FSunny.16 mph38%29.73 "Hg10 mi
9:58 AM80 °FSunny.13 mph41%29.73 "Hg10 mi
8:58 AM75 °FSunny.12 mph45%29.74 "Hg10 mi
Weather by CustomWeather, © 2015

See weather overviewHow to use our weather pages